www.pogodaiklimat.ru

Погода и климат >> Архив погоды >> Индия >> Guwahati


ПОГОДА в Guwahati

  • Прогноз погоды в Guwahati
  • Монитор погоды в Guwahati
  • Климат города

АРХИВ ПОГОДЫ в Guwahati

Время (UTC), дата Ветер
(напр.,м/с)
 
Видим.   Явления Облачность Т
(С)
Тd
(С)
f
(%)
Тe
(С)
Тes
(С)
Комфортность P
(гПа)
Po
(гПа)
Тmin
(С)
Tmax
(С)
R
(мм)
R24
(мм)
S
(см)
12 8.08 С 2 4000 м дымка 8/4 540 м
[Sc diur, vesp Ac trans]
+30.8 +25.7 74 +45 +45 опасность
перегрева
1001.7 1002.0 +32.0
15 8.08 штиль 0 4000 м дымка 8/4 540 м
[Cb calv Ac trans]
+29.4 +24.5 75 +42 +42 опасность
перегрева
1004.0 1004.0
18 8.08 штиль 0 2000 м дымка 9/5 540 м
[Cb calv Ac trans]
+28.6 +27.2 92 +45 +45 опасность
перегрева
1005.3 1005.0
21 8.08 штиль 0 2000 м дымка 10/5 540 м
[Cb calv As op]
+28.0 +26.9 94 +44 +44 опасность
перегрева
1004.7 1005.0
00 9.08 штиль 0 2000 м дымка 5/3 540 м
[Sc Ac trans]
+26.6 +24.9 90 +38 +38 очень
душно
1004.6 1005.0
03 9.08 штиль 0 4000 м дымка 6/3 600 м
[Sc Ac trans]
+31.0 +26.3 76 +47 +56 опасность
перегрева
1005.6 1006.0 +25.0
06 9.08 штиль 0 50 км мгла ?/? +34.6 +25.7 60 +50 +50 опасность
перегрева
1004.5 1005.0
09 9.08 С 3 4000 м мгла 8/3 600 м
[Cb calv Ac trans]
+34.6 +25.4 59 +49 +53 опасность
перегрева
1001.5 1002.0
12 9.08 Ю 4 4000 м дымка 8/4 600 м
[Cb calv Ac trans]
+32.0 +27.6 78 +52 +52 опасность
перегрева
1000.8 1001.0 +35.6
15 9.08 Ю 2 4000 м зарница 8/4 540 м
[Cb calv Ac trans]
+29.4 +26.6 85 +45 +45 опасность
перегрева
1003.8 1004.0
18 9.08 штиль 0 4000 м зарница 8/4 540 м
[Cb calv Ac trans]
+28.2 +26.2 89 +43 +43 опасность
перегрева
1003.9 1004.0
21 9.08 штиль 0 2000 м дымка 6/4 540 м
[Cb calv Ac trans]
+27.4 +26.0 92 +41 +41 опасность
перегрева
1002.9 1003.0
00 10.08 штиль 0 4000 м дымка 8/3 540 м
[Sc Ac trans Ci fib]
+27.0 +26.2 95 +41 +41 опасность
перегрева
1003.5 1004.0
03 10.08 З 2 4000 м дымка 5/1 540 м
[Sc Ac trans]
+31.0 +28.3 86 +52 +61 опасность
перегрева
1004.6 1005.0 +25.5
06 10.08 Ю 2 4000 м мгла 5/3 540 м
[Sc Ac trans]
+34.0 +27.1 67 +52 +65 опасность
перегрева
1003.1 1003.0
12 10.08 ЮЗ 2 4000 м мгла 9/4 540 м
[Cb calv Ac trans Ci fib]
+32.6 +27.1 73 +51 +51 опасность
перегрева
999.7 1000.0 +35.1
15 10.08 штиль 0 2000 м дымка 8/4 540 м
[Cb calv Ac trans]
+30.4 +27.4 84 +49 +49 опасность
перегрева
1001.2 1001.0
18 10.08 штиль 0 2000 м дымка 8/4 540 м
[Cb calv Ac trans]
+29.2 +27.5 91 +47 +47 опасность
перегрева
1002.1 1002.0
21 10.08 штиль 0 2000 м дымка 8/4 540 м
[Cb calv Ac trans]
+28.0 +26.9 94 +44 +44 опасность
перегрева
1001.3 1001.0
00 11.08 штиль 0 2000 м дымка 5/1 540 м
[Sc Ac trans]
+27.0 +26.2 95 +41 +41 опасность
перегрева
1000.2 1000.0
03 11.08 штиль 0 4000 м мгла 5/3 540 м
[Sc diur, vesp Ac trans]
+32.2 +26.4 72 +49 +59 опасность
перегрева
1001.4 1001.0 +26.0
06 11.08 З 3 4000 м мгла 5/3 600 м
[Cb calv Ac trans]
+35.0 +26.4 61 +51 +62 опасность
перегрева
1000.4 1000.0
09 11.08 З 3 4000 м мгла 6/3 600 м
[Cb calv Ac trans]
+35.4 +27.8 65 +56 +60 опасность
перегрева
996.8 997.0
12 11.08 Ю 4 4000 м дымка 8/4 540 м
[Cb calv Ac trans]
+31.6 +27.8 80 +51 +51 опасность
перегрева
997.1 997.0 +36.0
15 11.08 Ю 2 2000 м дымка 9/4 540 м
[Cb calv Ac trans]
+29.2 +26.4 85 +45 +45 опасность
перегрева
999.6 1000.0
18 11.08 Ю 1 2000 м зарница 9/4 540 м
[Cb calv Ac trans]
+28.4 +26.7 91 +44 +44 опасность
перегрева
1000.5 1001.0
21 11.08 штиль 0 2000 м зарница 9/4 540 м
[Cb calv Ac trans]
+27.6 +26.5 94 +42 +42 опасность
перегрева
1000.1 1000.0
00 12.08 штиль 0 2000 м дымка 9/4 540 м
[Cb calv Ac trans]
+27.4 +26.6 95 +42 +42 опасность
перегрева
998.8 999.0
03 12.08 СВ 1 4000 м дымка {дождь} 9/5 300 м
[Cb calv Ac trans]
+30.0 +26.7 83 +47 +50 опасность
перегрева
1000.2 1000.0 +26.2 0.1
06 12.08 СЗ 2 4000 м мгла {дождь} 8/4 540 м
[Cb calv Ac trans]
+34.0 +26.8 66 +51 +59 опасность
перегрева
998.4 998.0 0.0
09 12.08 С 3 4000 м гроза без осадков 8/4 540 м
[Cb calv Ac trans]
+33.0 +27.5 73 +52 +56 опасность
перегрева
996.9 997.0 0.0
12 12.08 штиль 0 4000 м дымка {гроза, дождь} 8/4 540 м
[Cb calv Ac trans]
+30.4 +28.5 90 +52 +52 опасность
перегрева
996.9 997.0 +34.7 4
15 12.08 Ю 2 2000 м дымка 9/4 540 м
[Cb calv Ac trans]
+29.4 +27.5 90 +48 +48 опасность
перегрева
999.3 999.0 4
18 12.08 ЮЗ 2 2000 м слабый дождь 10/5 540 м
[Cb calv As op]
+28.8 +27.1 91 +46 +46 опасность
перегрева
999.6 1000.0 4
21 12.08 штиль 0 2000 м гроза, ливневой дождь 10/5 300 м
[Cb cap As op]
+27.0 +26.7 98 +42 +42 опасность
перегрева
999.2 999.0 11
00 13.08 штиль 0 1000 м гроза, ливневой дождь 10/6 300 м
[Cb cap As op]
+25.6 +25.6 100 +37 +37 очень
душно
1000.3 1000.0 60
03 13.08 штиль 0 2000 м слабый дождь {гроза} 10/6 300 м
[Cb calv As op]
+26.4 +26.4 100 +40 +41 очень
душно
1001.4 1001.0 +24.5 67
06 13.08 С 2 4000 м слабый дождь {гроза} 10/5 360 м
[Cb calv As op]
+27.8 +26.9 95 +44 +46 опасность
перегрева
1001.0 1001.0 0.5
09 13.08 СВ 3 4000 м дымка {дождь} 9/5 300 м
[Cb calv As op]
+30.2 +25.4 76 +44 +46 опасность
перегрева
998.4 998.0 0.5
12 13.08 С 2 4000 м дымка {дождь} 9/4 540 м
[Sc diur, vesp Ac trans Ci fib]
+29.8 +25.9 80 +45 +45 опасность
перегрева
998.0 998.0 +30.4 0.5
15 13.08 штиль 0 2000 м дымка 9/5 540 м
[Cb calv Ac trans]
+28.6 +27.2 92 +45 +45 опасность
перегрева
999.9 1000.0 0.5
18 13.08 штиль 0 2000 м дымка 8/4 540 м
[Cb calv Ac trans]
+28.0 +26.9 94 +44 +44 опасность
перегрева
1000.5 1001.0 0.5
21 13.08 штиль 0 2000 м дымка 8/4 540 м
[Cb calv Ac trans]
+27.4 +26.6 95 +42 +42 опасность
перегрева
1000.2 1000.0 0.5
00 14.08 штиль 0 2000 м дымка {дождь} 9/5 300 м
[Cb calv Ac trans]
+26.8 +26.0 95 +40 +40 очень
душно
1000.3 1000.0 1
03 14.08 СВ 2 4000 м дымка 6/3 540 м
[Sc Ac trans]
+30.0 +25.4 76 +44 +51 опасность
перегрева
1000.8 1001.0 +25.4 1
06 14.08 СВ 2 4000 м мгла 6/4 900 м
[Sc Ac trans]
+33.2 +27.1 70 +51 +61 опасность
перегрева
998.4 998.0
09 14.08 С 7 4000 м 4/3 600 м
[Cb calv Ac trans]
+35.4 +28.1 66 +56 +58 опасность
перегрева
995.9 996.0
12 14.08 ЮЗ 6 4000 м мгла 8/4 540 м
[Cb calv Ac trans]
+34.0 +27.4 69 997.3 997.5 +35.8
15 14.08 Ю 3 4000 м зарница 8/4 540 м
[Cb cap Ac trans]
+28.4 +26.4 89 +43 +43 опасность
перегрева
999.9 1000.0
18 14.08 штиль 0 2000 м дымка 8/3 540 м
[Sc Ac trans]
+27.6 +26.2 92 +42 +42 опасность
перегрева
1000.8 1001.0
21 14.08 Ю 2 2000 м дымка 9/4 540 м
[Sc Ac trans]
+27.0 +25.9 94 +40 +40 очень
душно
1000.0 1000.0
00 15.08 штиль 0 2000 м дымка 9/5 540 м
[Cb calv Ac trans]
+26.8 +25.4 92 +39 +39 очень
душно
1002.4 1002.0
03 15.08 СВ 5 4000 м дымка 9/4 540 м
[Cb calv Ac trans]
+29.6 +26.5 83 +45 +47 опасность
перегрева
1004.0 1004.0 +26.4
06 15.08 СВ 5 4000 м мгла 9/4 540 м
[Cb calv Ac trans]
+32.0 +26.1 71 +48 +51 опасность
перегрева
1003.3 1003.0

 

Местоположение метеостанции Guwahati (Assam, Индия): широта 26.10 долгота 91.58 высота над уровнем моря 54 м.

В архиве по умолчанию представлена погода в Guwahati за последнюю неделю. Архивные данные за месяц целиком и за предыдущие месяцы, начиная с января 2011 года, Вы можете получить, выбрав интересующий диапазон дат из раскрывающегося списка и нажав кнопку "Ввод!".


*Определитесь, кто Вы:
робот инопланетянин человек

Внимание! Время в таблицах - всемирное. Для получения местного времени необходимо прибавить поправку, которая в Guwahati равна 5.5 ч.

Смотрите также архив погоды в соседних городах и на ближайших метеорологических станциях:

Погода в Rangia (Assam, Индия) (37 км)
Погода в Shillong Airport (Meghalaya, Индия) (59 км)
Погода в Shillong (Meghalaya, Индия) (66 км)
Погода в Tangla (Assam, Индия) (70 км)
Погода в Chaparmukh (Assam, Индия) (95 км)
Погода в Goalpara (Assam, Индия) (95 км)
Погода в Cherrapunji (Meghalaya, Индия) (96 км)
Погода в Mazbat (Assam, Индия) (105 км)
Погода в Tezpur (Assam, Индия) (133 км)
Погода в Sylhet (Бангладеш) (137 км)

Пояснения к столбцам:

Ветер - указаны скорость ветра в м/с - средняя за 10 мин, порывы в срок и между сроками (в фигурных скобках) и направление, откуда дует ветер: С - северный, СВ - северо-восточный, В - восточный, ЮВ - юго-восточный, Ю - южный, ЮЗ - юго-западный, З - западный, СЗ - северо-западный.
Видимость - горизонтальная дальность видимости в метрах или километрах. При видимости от 1 до 10 км при отсутствии осадков обычно наблюдается дымка, при ухудшении видимости до 1 км и менее - туман. В сухую погоду видимость может ухудшаться дымом, пылью или мглою.
Явления - указаны атмосферные явления, наблюдавшиеся в срок или в последний час перед сроком; фигурными скобками обозначены явления, наблюдавшиеся между сроками (за 1-3 часа до срока); квадратными скобками обозначены град или гололедные отложения с указанием их диаметра в мм.
Облачность - указаны через наклонную черту общая и нижняя облачность в баллах и высота нижней границы облаков в метрах; квадратными скобками обозначены формы облаков: Ci - перистые, Cs - перисто-слоистые, Cc - перисто-кучевые, Ac - высококучевые, As - высокослоистые, Sc - слоисто-кучевые, Ns - слоисто-дождевые, Cu - кучевые, Cb - кучево-дождевые. Подробнее классификацию облаков см. в Атласе облаков (PDF).
T - Температура воздуха - температура, измеренная на высоте 2 м над землей.
Td - Температура точки росы - температура, при понижении до которой содержащийся в воздухе водяной пар достигнет насыщения.
f - Относительная влажность воздуха - влажноcть воздуха, измеренная на высоте 2 м над землей.
Te - Эффективная температура - температура, которую ощущает одетый по сезону человек в тени. Характеристика душности погоды. При расчете учитывается влияние влажности воздуха и скорости ветра на теплоощущения человека.
Tes - Эффективная температура на солнце - температура, которую ощущает человек, с поправкой на солнечный нагрев. Характеристика знойности погоды. Зависит от высоты солнца над горизонтом, облачности и скорости ветра. Ночью, в пасмурную погоду, а также при ветре 12 м/с и более поправка равна нулю.
P - Атмосферное давление - приведенное к уровню моря атмосферное давление.
Po - Атмосферное давление - измеренное на уровне метеостанции атмосферное давление.
Tmin - Минимальная температура - минимум температуры воздуха на высоте 2 м над землей.
Tmax - Максимальная температура - максимум температуры воздуха на высоте 2 м над землей.
R - Количество осадков - Количество выпавших осадков за период времени, мм. При наведении курсора мыши на число - период времени, за который выпало указанное количество осадков.
R24 - Количество осадков - Количество выпавших осадков за 24 часа, мм.
S - Снежный покров - Высота снежного покрова, см. При наведении курсора мыши на число - состояние снежного покрова и степень покрытия местности в баллах.